METEOR 2-5 DEB, 36923

Orbit data source: Space-Track

METEOR 2-5 DEB, 36923 is space debris in LEO originally from a launch on Wed, 31 Oct 1979 UTC launched from the Plesetsk Missile And Space Complex (PKMTR). Debris objects in space refer to the collection of defunct objects orbiting the Earth. Examples of debris include non-operational satellites, rocket bodies, and fragments generated from explosions, collisions, or faulty payload assembly.

Loading next visibility...
Identifier
36923, 1979-095BQ
Orbit
LEO
Country
Flag of CISCIS
Related business
Manufacturer
Unknown
Mission
Spacecraft
Bus & Motor
Unknown
Mass
Unknown
Launch date (UTC)
1979-10-31 (47 years ago)
Launch vehicle
Unknown
Launch site
Plesetsk Missile And Space Complex (PKMTR)
Object type
Payload
Rocket body
Debris
Shape & HBR
Unknown shape, 0.1 m
Radar Cross Section
Small (<0.1 m²)

Expand to show TLE details & history
Last TLE update: 6 days ago

TLE from 6 days ago
0 METEOR 2-5 DEB
1 36923U 79095BQ  26167.48021218  .00007439  00000-0  17067-2 0  9997
2 36923  81.1845  79.0719 0001477 127.1582 232.9749 14.55471328 25283
Epoch: 2026-06-16T11:31Z
TLE epoch observation values (Epoch: 2026-06-16T11:31:30.332Z)
Latitude
0.00001°
Longitude
1.44388°
Altitude
711.424 km
Speed
7.5 km/s
True Right ascension
05h 16m 17s
True Declination
0° 00' 00"
Sunlit
Object was in daylight at epoch
Visualization orbit readout
Latitude
Unknown
Longitude
Unknown
Altitude
Unknown
Speed
Unknown
Apparent Right ascension
Unknown
Apparent Declination
Unknown
Sunlit
N/A
Visualization observer readout
Local Sidereal Time
10:01:30
Azimuth
Unknown
Elevation
Unknown
Doppler factor
Unknown
Orbital elements
Apogee altitude
705.997 km
Perigee altitude
703.905 km
Semi-major axis
7,083.088 km
Eccentricity
0.00015
Inclination
81.1845°
RAAN
79.0719°
Arg. of periapsis
127.1582°
True anomaly
232.96139°
Mean anomaly
232.9749°
Eccentric anomaly
232.96814°
Mean motion
3.6409 °/min
Orbital period
98.88 mins
BSTAR
0.0017067
Loading maneuver chart data...
Computing Atmospheric mass density...

Documentation

Showing up to 5 results
|